Regional Weather Roundup
Issued by NWS

Home | Current Version | Previous Version | Graphics & Text | Print | Product List | Glossary On
Versions: 1 2 3 4 5 6 7 8 9 10 11 12 13 14 15 16 17 18 19 20 21 22 23 24 25 26 27
000
ASUS45 KBOU 222006
RWRCO

WEATHER ROUNDUP FOR COLORADO
NATIONAL WEATHER SERVICE DENVER/BOULDER CO
200 PM MDT TUE APR 22 2014

NOTE: "FAIR" INDICATES FEW OR NO CLOUDS BELOW 12000 FEET WITH NO
SIGNIFICANT WEATHER AND/OR OBSTRUCTIONS TO VISIBILITY.

COZ001>005-013-030-031-222100-
...NORTHWEST COLORADO...

CITY           SKY/WX    TMP DP  RH WIND       PRES   REMARKS
CRAIG          PTSUNNY   71  32  23 SW25G43   29.83F
HAYDEN         PTSUNNY   68  32  26 SW14G28   29.90F
MEEKER         CLOUDY    68  28  22 S26G39    29.87F
MOUNT WERNER   NOT AVBL
STEAMBOAT SPGS PTSUNNY   66  22  18 S15G25    29.91F
WALDEN         CLOUDY    55  30  38 SW9       29.98F
$$

COZ006>008-011-222100-
...WEST CENTRAL VALLEYS...

CITY           SKY/WX    TMP DP  RH WIND       PRES   REMARKS
GRAND JUNCTION CLOUDY    75  21  13 S23G35    29.82F
MONTROSE       CLOUDY    74  25  16 SW25G36   29.91F
EAGLE          LGT RAIN  64  36  34 SW35G55   29.96F
RIFLE          CLOUDY    71  32  23 W9        29.84F
DELTA          NOT AVBL
NUCLA          NOT AVBL
$$

COZ017>023-064>068-222100-
...SOUTHWEST COLORADO...

CITY           SKY/WX    TMP DP  RH WIND       PRES   REMARKS
DURANGO        PTSUNNY   68  32  26 W14       30.03F
CORTEZ         MOSUNNY   75  29  18 S23G30    29.97F
PAGOSA SPRINGS CLOUDY    60  32  35 S8        30.11S
TELLURIDE      CLOUDY    55  27  33 SE18G32   30.10F
WOLF CREEK PAS PTSUNNY   34  32  93 SW23G31   30.27S WCI  22
$$

COZ009-010-012-014-032>034-037-058>063-222100-
...CENTRAL COLORADO...

CITY           SKY/WX    TMP DP  RH WIND       PRES   REMARKS
ASPEN          CLOUDY    57  31  37 NW9       30.02F
BUENA VISTA    PTSUNNY   58  31  35 SW12G17   30.07R
COPPER MTN     CLOUDY    46  23  39 SW8G21    30.23F
BERTHOUD PASS  PTSUNNY   36  28  75 MISG      30.25F
COTTONWOOD PAS RAIN      46  34  61 SW26G41   30.15R
GUNNISON       PTSUNNY   64  27  24 SW17      30.04F
KREMMLING      CLOUDY    63  27  25 W15G26    29.98S
LEADVILLE      LGT RAIN  49  23  36 S13G25    30.10F
MONARCH PASS   LGT RAIN  37  30  75 SW25G32   30.33F
SALIDA         CLOUDY    60  38  44 SW25G44   30.15R
SUNLIGHT       CLOUDY    45  32  61 CALM      30.16F
WILKERSON PASS CLOUDY    46  28  49 S9G20     30.22F
$$

COZ069>075-222100-
...SAN LUIS VALLEY/SANGRE DE CRISTO MOUNTAINS...

CITY           SKY/WX    TMP DP  RH WIND       PRES   REMARKS
ALAMOSA        PTSUNNY   68  31  25 SW16G29   30.05F
LA VETA PASS   PTSUNNY   50  32  50 SW14G30   30.18F
SAGUACHE       PTSUNNY   66  28  24 S8        30.05F
$$

COZ035-036-038>040-222100-
...NORTHERN COLORADO FRONT RANGE...

CITY           SKY/WX    TMP DP  RH WIND       PRES   REMARKS
DENVER INTL AP PTSUNNY   78  24  13 S8G17     29.83F
DMNS CITY PARK   N/A     76  28  17 S10G16    29.80F
AURORA         PTSUNNY   77  28  16 S9        29.85F
FRONT RANGE AP PTSUNNY   81  28  15 S12G18    29.85
ERIE MUNI ARPT PTSUNNY   73  38  27 CALM      29.81F
BOULDER MUN AP PTSUNNY   73  34  23 E3        29.82F
CENTENNIAL     PTSUNNY   73  27  18 W3        29.85F
BROOMFIELD     PTSUNNY   73  30  20 SE16G23   29.85F
FORT COLLINS   PTSUNNY   72  43  35 S5        29.83F
LONGMONT       NOT AVBL
$$

COZ041-046-047-076>085-087-088-222100-
...PIKES PEAK/PALMER DIVIDE AND SOUTHERN FOOTHILLS...

CITY           SKY/WX    TMP DP  RH WIND       PRES   REMARKS
COLO. SPRINGS  PTSUNNY   76  30  18 S20G33    29.92F
A. F. ACADEMY  PTSUNNY   73  28  18 S10       29.91F
ELLICOTT       NOT AVBL
FALCON         PTSUNNY   73  28  19 S20G30    29.96F
FORT CARSON    PTSUNNY   75  32  21 S18G36    29.89F
LIMON          MOSUNNY   77  28  16 SW15G23   29.88F
MONUMENT HILL  MOSUNNY   68  28  22 SW15      29.95F
TRINIDAD       MOSUNNY   75  38  26 SW25G31   29.95F
$$

COZ042>045-048>051-090-091-222100-
...NORTHEAST COLORADO...

CITY           SKY/WX    TMP DP  RH WIND       PRES   REMARKS
GREELEY ARPT   MOSUNNY   75  41  29 E5        29.81F
AKRON          MOSUNNY   78  32  18 S14G25    29.84F
BURLINGTON     SUNNY     82  40  22 SW23G43   29.87F
WRAY           PTSUNNY   82  41  24 S17G30    29.84F
STERLING       NOT AVBL
HOLYOKE        NOT AVBL
FORT MORGAN    NOT AVBL
$$

COZ086-089-092>099-222100-
...SOUTHEAST COLORADO...

CITY           SKY/WX    TMP DP  RH WIND       PRES   REMARKS
PUEBLO         PTSUNNY   79  33  19 VRB6      29.85F
LA JUNTA       MOSUNNY   83  37  19 SW20G25   29.85F
LAMAR          MOSUNNY   85  39  19 SW22G35   29.83F
SPRINGFIELD      N/A     79  43  27 S32G38    29.94F
$$



USA.gov is the U.S. government's official web portal to all federal, state and local government web resources and services.